Location: Niagara
(43.2500°N, 79.0670°W)
Time: 16:47:38
(UTC-04:00)

ISS - Pass Details

Date: 12 October 2017
Orbit: 400 x 408 km, 51.6° (Epoch: 24 October)

Event Time Altitude Azimuth Distance (km) Brightness Sun altitude
Rises 21:09:47 0° 292° (WNW) 2,327 1.3 -28.2°
Reaches altitude 10° 21:12:15 10° 274° (W) 1,465 -0.1 -28.7°
Enters shadow 21:13:08 14° 261° (W) 1,224 -0.7 -28.8°
